Three Rivers, MI

7:52 PM EST on February 13, 2016 (GMT -0500)
Three Rivers Municipal-Haines

Weather History for KHAI - May, 2012

Change the Weather History Date:

Thursday, May 17, 2012

  Actual Average (WUND) Record (WUND)
Temperature  
Mean Temperature 56 °F -  
Max Temperature 70 °F - - (-1)
Min Temperature 42 °F - - (-1)
Degree Days  
Heating Degree Days 9    
Growing Degree Days 6 (Base 50)    
Moisture  
Dew Point 36 °F    
Average Humidity 45    
Maximum Humidity 81    
Minimum Humidity 27    
Precipitation  
Precipitation 0.00 in - - ()
Sea Level Pressure  
Sea Level Pressure 30.15 in    
Wind  
Wind Speed 4 mph (ESE)    
Max Wind Speed 10 mph    
Max Gust Speed -    
Visibility 10 miles    
Events      
Averages and records for this station are not official NWS values.
T = Trace of Precipitation, MM = Missing Value Source: NWS Daily Summary

Daily Weather History Graph

Daily Weather History Graph

Search for Another Location

Airport or City:

Trip Planner

Search our weather history database for the weather conditions in past years. The results will help you decide how hot, cold, wet, or windy it might be!

Date:

Astronomy

May. 17, 2012 Rise Set
Actual Time 6:19 AM EDT 8:58 PM EDT
Civil Twilight 5:47 AM EDT 9:30 PM EDT
Nautical Twilight 5:07 AM EDT 10:11 PM EDT
Astronomical Twilight 4:21 AM EDT 10:57 PM EDT
Moon 4:20 AM EDT (5/17) 6:08 PM EDT (5/17)
Length of Visible Light 15h 43m
Length of Day
14h 38m
Waning Crescent, 10% of the Moon is Illuminated
May 17
Waning Crescent
May 20
New
May 28
First Quarter
Jun 4
Full
Jun 11
Last Quarter

Hourly Weather History & Observations

Time (EDT) Temp. Dew Point Humidity Pressure Visibility Wind Dir Wind Speed Gust Speed Precip Events Conditions
12:14 AM 50.9 °F 34.9 °F 54% 30.14 in 10.0 mi North 3.5 mph - N/A   Clear
12:35 AM 51.1 °F 33.8 °F 52% 30.14 in 10.0 mi Calm Calm - N/A   Clear
12:54 AM 51.1 °F 33.8 °F 52% 30.14 in 10.0 mi Calm Calm - N/A   Clear
1:14 AM 51.3 °F 33.4 °F 51% 30.14 in 10.0 mi NE 3.5 mph - N/A   Clear
1:35 AM 51.1 °F 33.4 °F 51% 30.14 in 10.0 mi ENE 5.8 mph - N/A   Clear
1:54 AM 49.6 °F 33.4 °F 54% 30.14 in 10.0 mi ENE 4.6 mph - N/A   Clear
2:14 AM 48.9 °F 33.1 °F 54% 30.14 in 10.0 mi ENE 6.9 mph - N/A   Clear
2:35 AM 49.8 °F 32.9 °F 52% 30.13 in 10.0 mi East 6.9 mph - N/A   Clear
3:15 AM 48.7 °F 32.5 °F 54% 30.14 in 10.0 mi East 5.8 mph - N/A   Clear
3:35 AM 48.2 °F 32.9 °F 55% 30.14 in 10.0 mi East 5.8 mph - N/A   Clear
3:54 AM 48.7 °F 33.1 °F 55% 30.14 in 10.0 mi East 8.1 mph - N/A   Clear
4:15 AM 48.4 °F 33.1 °F 56% 30.15 in 10.0 mi East 4.6 mph - N/A   Clear
4:34 AM 48.2 °F 32.9 °F 55% 30.14 in 10.0 mi ESE 3.5 mph - N/A   Clear
4:54 AM 48.0 °F 32.9 °F 56% 30.15 in 10.0 mi ESE 4.6 mph - N/A   Clear
5:15 AM 47.8 °F 32.9 °F 56% 30.15 in 10.0 mi SE 4.6 mph - N/A   Clear
5:34 AM 44.2 °F 34.0 °F 67% 30.16 in 10.0 mi Calm Calm - N/A   Clear
5:54 AM 42.6 °F 34.3 °F 73% 30.16 in 10.0 mi Calm Calm - N/A   Clear
6:15 AM 42.4 °F 35.2 °F 76% 30.17 in 10.0 mi Calm Calm - N/A   Clear
6:34 AM 42.1 °F 35.4 °F 77% 30.17 in 10.0 mi Calm Calm - N/A   Clear
6:55 AM 42.3 °F 36.9 °F 81% 30.18 in 10.0 mi Calm Calm - N/A   Clear
7:15 AM 43.7 °F 38.1 °F 81% 30.19 in 10.0 mi Calm Calm - N/A   Clear
7:34 AM 46.4 °F 38.1 °F 73% 30.20 in 10.0 mi Calm Calm - N/A   Clear
7:55 AM 49.1 °F 37.8 °F 65% 30.20 in 10.0 mi ESE 4.6 mph - N/A   Clear
8:14 AM 50.9 °F 38.8 °F 63% 30.21 in 10.0 mi ESE 4.6 mph - N/A   Clear
8:34 AM 52.3 °F 40.3 °F 64% 30.21 in 10.0 mi SE 4.6 mph - N/A   Clear
8:55 AM 53.8 °F 40.5 °F 61% 30.21 in 10.0 mi SE 5.8 mph - N/A   Clear
9:15 AM 55.6 °F 41.7 °F 60% 30.21 in 10.0 mi SE 5.8 mph - N/A   Clear
9:34 AM 56.7 °F 41.5 °F 57% 30.21 in 10.0 mi ESE 5.8 mph - N/A   Clear
9:55 AM 58.1 °F 41.4 °F 54% 30.21 in 10.0 mi ESE 5.8 mph - N/A   Clear
10:14 AM 59.4 °F 41.7 °F 52% 30.21 in 10.0 mi SE 5.8 mph - N/A   Clear
10:35 AM 60.4 °F 40.3 °F 47% 30.21 in 10.0 mi ESE 4.6 mph - N/A   Clear
10:55 AM 61.2 °F 38.1 °F 42% 30.20 in 10.0 mi SE 4.6 mph - N/A   Clear
11:14 AM 61.7 °F 37.4 °F 41% 30.20 in 5.0 mi Calm Calm - N/A   Haze
11:35 AM 63.0 °F 37.6 °F 39% 30.20 in 10.0 mi East 6.9 mph - N/A   Clear
11:54 AM 63.0 °F 36.9 °F 38% 30.20 in 10.0 mi Calm Calm - N/A   Clear
12:15 PM 63.9 °F 35.1 °F 34% 30.20 in 10.0 mi SE 5.8 mph - N/A   Clear
12:35 PM 64.6 °F 34.5 °F 33% 30.20 in 10.0 mi Calm Calm - N/A   Clear
12:54 PM 65.7 °F 36.1 °F 34% 30.19 in 10.0 mi ESE 10.4 mph - N/A   Clear
1:15 PM 66.4 °F 36.1 °F 33% 30.19 in 5.0 mi East 6.9 mph - N/A   Haze
1:35 PM 66.0 °F 34.9 °F 32% 30.19 in 10.0 mi Calm Calm - N/A   Clear
1:54 PM 67.5 °F 36.3 °F 32% 30.18 in 10.0 mi ESE 9.2 mph - N/A   Clear
2:15 PM 66.6 °F 35.1 °F 31% 30.17 in 10.0 mi ESE 4.6 mph - N/A   Clear
2:34 PM 68.0 °F 35.6 °F 30% 30.17 in 10.0 mi ENE 6.9 mph - N/A   Clear
2:54 PM 68.0 °F 35.6 °F 30% 30.16 in 10.0 mi ESE 5.8 mph - N/A   Clear
3:15 PM 68.7 °F 35.1 °F 29% 30.16 in 10.0 mi SE 6.9 mph - N/A   Clear
3:34 PM 68.5 °F 35.4 °F 30% 30.15 in 7.0 mi SE 6.9 mph - N/A   Clear
3:54 PM 68.5 °F 34.2 °F 28% 30.14 in 10.0 mi Calm Calm - N/A   Clear
4:15 PM 69.3 °F 35.8 °F 29% 30.14 in 10.0 mi ESE 8.1 mph - N/A   Clear
4:34 PM 69.6 °F 35.6 °F 29% 30.13 in 10.0 mi SE 4.6 mph - N/A   Clear
4:55 PM 70.3 °F 36.9 °F 29% 30.13 in 10.0 mi ESE 6.9 mph - N/A   Clear
5:14 PM 70.0 °F 34.3 °F 27% 30.12 in 10.0 mi SSE 4.6 mph - N/A   Clear
5:35 PM 69.8 °F 34.5 °F 27% 30.12 in 10.0 mi Calm Calm - N/A   Clear
5:54 PM 69.6 °F 34.9 °F 28% 30.12 in 10.0 mi NE 5.8 mph - N/A   Clear
6:14 PM 69.6 °F 34.9 °F 28% 30.11 in 10.0 mi East 4.6 mph - N/A   Clear
6:35 PM 69.8 °F 35.4 °F 28% 30.11 in 10.0 mi East 5.8 mph - N/A   Clear
6:54 PM 69.4 °F 34.5 °F 28% 30.11 in 10.0 mi ENE 5.8 mph - N/A   Clear
7:15 PM 69.1 °F 33.4 °F 27% 30.11 in 10.0 mi East 4.6 mph - N/A   Clear
7:35 PM 68.9 °F 34.3 °F 28% 30.10 in 10.0 mi SE 5.8 mph - N/A   Clear
7:54 PM 68.2 °F 35.2 °F 30% 30.10 in 10.0 mi SE 6.9 mph - N/A   Clear
8:15 PM 67.5 °F 34.5 °F 30% 30.10 in 10.0 mi SE 5.8 mph - N/A   Clear
8:35 PM 66.4 °F 35.1 °F 31% 30.10 in 10.0 mi SE 3.5 mph - N/A   Clear
8:54 PM 64.8 °F 36.1 °F 35% 30.10 in 10.0 mi Calm Calm - N/A   Clear
9:15 PM 63.7 °F 36.7 °F 37% 30.10 in 10.0 mi Calm Calm - N/A   Clear
9:34 PM 63.5 °F 36.9 °F 37% 30.10 in 10.0 mi SE 3.5 mph - N/A   Clear
9:54 PM 62.6 °F 36.9 °F 38% 30.11 in 10.0 mi Calm Calm - N/A   Clear
10:15 PM 61.7 °F 37.2 °F 40% 30.11 in 10.0 mi SE 3.5 mph - N/A   Clear
10:34 PM 60.8 °F 37.4 °F 42% 30.11 in 10.0 mi Calm Calm - N/A   Clear
10:55 PM 60.4 °F 36.5 °F 41% 30.12 in 10.0 mi SE 3.5 mph - N/A   Clear
11:15 PM 59.9 °F 36.5 °F 42% 30.12 in 10.0 mi SE 4.6 mph - N/A   Clear
11:34 PM 59.9 °F 36.5 °F 42% 30.12 in 10.0 mi SSE 4.6 mph - N/A   Clear
11:55 PM 59.2 °F 36.3 °F 43% 30.12 in 10.0 mi SE 4.6 mph - N/A   Clear